Omak, WA

4:00 PM PDT on April 22, 2018 (GMT -0700)
Omak

Weather History for KOMK - May, 2012

Change the Weather History Date:

Thursday, May 24, 2012

  Actual Average Record
Temperature  
Mean Temperature 52 °F 61 °F  
Max Temperature 66 °F 74 °F 94 °F (1934)
Min Temperature 38 °F 47 °F 31 °F (2010)
Degree Days  
Heating Degree Days 13 5  
Month to date heating degree days 246 202  
Since 1 July heating degree days 6530 6241  
Cooling Degree Days 0 1  
Month to date cooling degree days 2 14  
Year to date cooling degree days 4 15  
Growing Degree Days 2 (Base 50)    
Moisture  
Dew Point 35 °F    
Average Humidity 52    
Maximum Humidity 76    
Minimum Humidity 28    
Precipitation  
Precipitation 0.00 in 0.04 in 0.85 in (1942)
Month to date precipitation 0.53 0.95  
Year to date precipitation 5.79 6.48  
Sea Level Pressure  
Sea Level Pressure 29.80 in    
Wind  
Wind Speed 9 mph (NNW)    
Max Wind Speed 22 mph    
Max Gust Speed 26 mph    
Visibility 10 miles    
Events      
T = Trace of Precipitation, MM = Missing Value Source: NWS Daily Summary

Daily Weather History Graph

Daily Weather History Graph

Search for Another Location

Airport or City:

Astronomy

May. 24, 2012 Rise Set
Actual Time 5:06 AM PDT 8:43 PM PDT
Civil Twilight 4:27 AM PDT 9:23 PM PDT
Nautical Twilight 3:34 AM PDT 10:16 PM PDT
Astronomical Twilight 2:21 AM PDT 11:30 PM PDT
Moon 8:13 AM PDT (5/24) 11:41 PM PDT (5/24)
Length of Visible Light 16h 55m
Length of Day
15h 36m
Waxing Crescent, 13% of the Moon is Illuminated
May 24
Waxing Crescent
May 28
First Quarter
Jun 4
Full
Jun 11
Last Quarter
Jun 19
New

Hourly Weather History & Observations

Time (PDT) Temp. Windchill Dew Point Humidity Pressure Visibility Wind Dir Wind Speed Gust Speed Precip Events Conditions
12:53 AM 45.0 °F 40.6 °F 34.0 °F 65% 29.82 in 10.0 mi WNW 8.1 mph - N/A   Clear
1:53 AM 43.0 °F 38.8 °F 34.0 °F 71% 29.82 in 10.0 mi NW 6.9 mph - N/A   Clear
2:53 AM 42.1 °F 37.7 °F 33.1 °F 70% 29.83 in 10.0 mi WNW 6.9 mph - N/A   Clear
3:53 AM 39.0 °F 34.8 °F 32.0 °F 76% 29.84 in 10.0 mi North 5.8 mph - N/A   Clear
4:53 AM 39.0 °F 36.8 °F 32.0 °F 76% 29.83 in 10.0 mi NW 3.5 mph - N/A   Partly Cloudy
5:53 AM 44.1 °F 39.5 °F 33.1 °F 65% 29.83 in 10.0 mi NNW 8.1 mph - N/A   Partly Cloudy
6:53 AM 48.0 °F - 35.1 °F 61% 29.83 in 10.0 mi NNW 3.5 mph - N/A   Clear
7:53 AM 52.0 °F - 36.0 °F 54% 29.82 in 10.0 mi NNW 6.9 mph - N/A   Clear
8:53 AM 55.9 °F - 34.0 °F 44% 29.82 in 10.0 mi North 9.2 mph - N/A   Clear
9:53 AM 59.0 °F - 33.1 °F 38% 29.80 in 10.0 mi North 10.4 mph - N/A   Clear
10:53 AM 63.0 °F - 32.0 °F 31% 29.78 in 10.0 mi North 9.2 mph - N/A   Clear
11:53 AM 61.0 °F - 28.9 °F 30% 29.77 in 10.0 mi SSW 5.8 mph - N/A   Scattered Clouds
12:53 PM 64.0 °F - 30.0 °F 28% 29.75 in 10.0 mi Variable 3.5 mph - N/A   Partly Cloudy
1:53 PM 61.0 °F - 37.9 °F 42% 29.76 in 10.0 mi ESE 17.3 mph - N/A   Mostly Cloudy
2:53 PM 63.0 °F - 35.1 °F 35% 29.76 in 10.0 mi SE 16.1 mph 21.9 mph N/A   Scattered Clouds
3:53 PM 63.0 °F - 37.0 °F 38% 29.75 in 10.0 mi SW 8.1 mph - N/A   Partly Cloudy
4:53 PM 64.0 °F - 35.1 °F 34% 29.75 in 10.0 mi South 4.6 mph - N/A   Clear
5:53 PM 62.1 °F - 39.0 °F 43% 29.75 in 10.0 mi NNE 15.0 mph - N/A   Overcast
6:53 PM 59.0 °F - 39.0 °F 48% 29.76 in 10.0 mi North 11.5 mph - N/A   Partly Cloudy
7:53 PM 60.1 °F - 37.9 °F 44% 29.77 in 10.0 mi NNW 8.1 mph - N/A   Scattered Clouds
8:53 PM 55.9 °F - 37.0 °F 49% 29.78 in 10.0 mi North 10.4 mph - N/A   Mostly Cloudy
9:53 PM 55.9 °F - 37.9 °F 51% 29.81 in 10.0 mi North 8.1 mph - N/A   Overcast
10:53 PM 55.9 °F - 37.9 °F 51% 29.82 in 10.0 mi North 9.2 mph - N/A   Overcast
11:53 PM 55.0 °F - 39.0 °F 55% 29.83 in 10.0 mi North 10.4 mph - N/A   Overcast